DW2416 Weather Reports


Display with metric or nautical units.
time (UTC)temp
F
wind
direction
speed
MPH
gust
MPH
rain 1hr
in
rain 24hr
in
rain mn
in
humidity
%
barometer
mb
20210925064004 51 23 0.0 3.0 0.01 0.95 0.01 94 1017.9
20210925063004 51 24 2.0 4.0 0.01 0.95 0.01 94 1018.0
20210925062004 51 22 1.0 3.0 0.01 1.00 0.01 93 1017.9
20210925061004 51 22 1.0 3.0 0.01 1.00 0.01 94 1017.9
20210925060004 51 0 0.0 0.0 0.00 0.99 0.00 93 1017.9
20210925055004 51 0 0.0 0.0 0.00 1.02 0.00 93 1017.8
20210925054004 51 11 0.0 3.0 0.00 1.02 0.00 93 1017.6
20210925053003 51 16 1.0 4.0 0.00 1.02 0.00 93 1017.6
20210925052003 52 19 0.0 2.0 0.00 1.09 0.00 93 1017.6
20210925051005 52 30 3.0 4.0 0.00 1.09 0.00 93 1017.5
20210925050004 52 65 1.0 4.0 0.00 1.09 0.00 93 1017.4
20210925045004 52 0 0.0 0.0 0.00 1.13 0.00 92 1017.4
20210925044004 52 0 0.0 0.0 0.00 1.13 0.00 93 1017.4
20210925043003 52 0 0.0 0.0 0.00 1.13 0.00 92 1017.4
20210925042004 52 66 1.0 4.0 0.00 1.13 0.00 92 1017.5
20210925041003 52 0 0.0 0.0 0.00 1.13 0.00 92 1017.5
20210925040006 52 0 0.0 0.0 0.00 1.13 0.00 92 1017.6
20210925035004 52 0 0.0 0.0 0.00 1.13 1.13 92 1017.5
20210925034003 52 0 0.0 0.0 0.00 1.13 1.13 92 1017.5
20210925033003 52 0 0.0 0.0 0.00 1.13 1.13 91 1017.6
20210925032003 53 0 0.0 0.0 0.00 1.13 1.13 91 1017.5
20210925031004 53 0 0.0 0.0 0.00 1.13 1.13 91 1017.5
20210925030005 53 0 0.0 0.0 0.00 1.13 1.13 91 1017.4
20210925025003 53 0 0.0 0.0 0.00 1.13 1.13 91 1017.4
20210925024003 53 86 1.0 2.0 0.00 1.13 1.13 90 1017.4
20210925023004 54 0 0.0 0.0 0.00 1.13 1.13 89 1017.4
20210925022004 54 86 0.0 2.0 0.00 1.13 1.13 88 1017.4
20210925021004 54 0 0.0 0.0 0.00 1.13 1.13 89 1017.5
20210925020003 55 0 0.0 0.0 0.00 1.13 1.13 88 1017.6
20210925015003 55 0 0.0 0.0 0.00 1.13 1.13 88 1017.5
20210925014003 55 0 0.0 0.0 0.00 1.13 1.13 87 1017.5
20210925013004 56 0 0.0 0.0 0.00 1.13 1.13 87 1017.5
20210925012004 56 0 0.0 0.0 0.00 1.13 1.13 86 1017.4
20210925011003 56 0 0.0 0.0 0.00 1.13 1.13 86 1017.5
20210925010004 57 0 0.0 0.0 0.00 1.13 1.13 86 1017.5
20210925005003 57 0 0.0 0.0 0.00 1.13 1.13 85 1017.5
20210925004003 57 86 0.0 1.0 0.00 1.13 1.13 84 1017.4
20210925003004 57 86 1.0 3.0 0.00 1.13 1.13 84 1017.5
20210925002004 58 0 0.0 0.0 0.00 1.13 1.13 81 1017.3
20210925001003 58 86 1.0 3.0 0.00 1.13 1.13 80 1017.3
20210925000003 60 86 1.0 2.0 0.00 1.13 1.13 77 1017.1
20210924235003 61 86 1.0 2.0 0.00 1.13 1.13 75 1016.9
20210924234004 62 88 2.0 4.0 0.00 1.13 1.13 71 1016.8
20210924233004 62 88 0.0 2.0 0.00 1.13 1.13 69 1016.8
20210924232003 62 89 1.0 3.0 0.00 1.13 1.13 69 1016.6
20210924231003 63 90 2.0 3.0 0.00 1.13 1.13 68 1016.5
20210924230003 63 87 4.0 8.0 0.00 1.13 1.13 67 1016.2
20210924225003 64 76 3.0 5.0 0.00 1.13 1.13 66 1016.0
20210924224004 65 79 4.0 9.0 0.00 1.13 1.13 64 1015.9
20210924223004 66 60 4.0 9.0 0.00 1.13 1.13 61 1015.7
20210924222004 66 43 4.0 6.0 0.00 1.13 1.13 60 1015.5
20210924221003 67 40 4.0 11.0 0.00 1.13 1.13 59 1015.5
20210924220003 67 40 6.0 10.0 0.00 1.13 1.13 58 1015.3
20210924215003 68 30 6.0 11.0 0.00 1.13 1.13 56 1015.2
20210924214004 69 33 5.0 10.0 0.00 1.13 1.13 56 1015.0
20210924213004 69 38 6.0 12.0 0.00 1.13 1.13 55 1015.0
20210924212003 69 33 5.0 13.0 0.00 1.13 1.13 55 1015.0
20210924211003 69 26 7.0 14.0 0.00 1.13 1.13 54 1014.9
20210924210004 69 30 6.0 12.0 0.00 1.13 1.13 54 1014.7
20210924205003 70 30 7.0 12.0 0.00 1.13 1.13 55 1014.7
20210924204004 70 36 8.0 15.0 0.00 1.13 1.13 54 1014.6
20210924203004 70 20 6.0 12.0 0.00 1.13 1.13 60 1014.5
20210924202004 69 352 7.0 13.0 0.00 1.13 1.13 62 1014.4
20210924201003 69 6 7.0 15.0 0.00 1.13 1.13 63 1014.4
20210924200004 70 351 9.0 17.0 0.00 1.13 1.13 62 1014.4
20210924195003 69 6 10.0 16.0 0.00 1.13 1.13 62 1014.3
20210924194003 70 3 8.0 14.0 0.00 1.13 1.13 61 1014.2
20210924193003 70 9 7.0 13.0 0.00 1.13 1.13 62 1014.2
20210924192004 70 359 8.0 14.0 0.00 1.13 1.13 62 1014.1
20210924191004 69 7 8.0 19.0 0.00 1.13 1.13 61 1014.1
20210924190003 69 1 7.0 17.0 0.00 1.13 1.13 63 1014.1
20210924185003 69 9 8.0 14.0 0.00 1.13 1.13 62 1014.1
20210924184003 69 356 9.0 17.0 0.00 1.13 1.13 62 1014.0
20210924183004 69 344 9.0 14.0 0.00 1.13 1.13 62 1014.1
20210924182004 69 12 7.0 13.0 0.00 1.13 1.13 64 1014.2
20210924181004 68 4 10.0 15.0 0.00 1.13 1.13 61 1014.3
20210924180003 69 353 10.0 16.0 0.00 1.13 1.13 60 1014.3
20210924175003 68 350 10.0 16.0 0.00 1.13 1.13 62 1014.3
20210924174003 68 357 10.0 18.0 0.00 1.13 1.13 62 1014.4
20210924173004 68 358 8.0 18.0 0.00 1.13 1.13 65 1014.4
20210924172004 67 8 9.0 17.0 0.00 1.13 1.13 64 1014.6
20210924171004 67 346 10.0 18.0 0.00 1.13 1.13 68 1014.7
20210924170004 66 338 9.0 14.0 0.00 1.13 1.13 72 1014.6
20210924165003 66 324 10.0 16.0 0.00 1.13 1.13 73 1014.4
20210924164004 65 354 9.0 15.0 0.00 1.13 1.13 73 1014.5
20210924163004 64 348 9.0 14.0 0.00 1.13 1.13 75 1014.4
20210924162003 64 350 11.0 18.0 0.00 1.13 1.13 75 1014.5
20210924161003 64 342 10.0 16.0 0.00 1.13 1.13 75 1014.6
20210924160003 64 331 9.0 17.0 0.00 1.13 1.13 77 1014.6
20210924155004 64 335 9.0 18.0 0.00 1.13 1.13 78 1014.7
20210924154004 63 347 10.0 16.0 0.00 1.13 1.13 79 1014.8
20210924153004 63 347 10.0 18.0 0.00 1.13 1.13 83 1015.0
20210924152004 62 344 8.0 15.0 0.00 1.13 1.13 86 1015.3
20210924151004 62 354 9.0 14.0 0.00 1.13 1.13 88 1015.3
20210924150004 61 347 10.0 17.0 0.00 1.13 1.13 89 1015.2
20210924145004 60 359 8.0 17.0 0.00 1.13 1.13 90 1015.2
20210924144003 60 358 7.0 15.0 0.00 1.13 1.13 91 1015.2
20210924143003 60 17 7.0 12.0 0.00 1.13 1.13 92 1015.2
20210924142004 60 13 5.0 12.0 0.00 1.13 1.13 92 1015.0
20210924141003 60 20 5.0 11.0 0.00 1.13 1.13 93 1015.1
20210924140004 60 352 6.0 12.0 0.00 1.13 1.13 93 1014.8
20210924135004 60 352 6.0 12.0 0.00 1.13 1.13 93 1014.8
20210924134003 60 346 8.0 13.0 0.00 1.13 1.13 93 1014.8
20210924133003 60 346 6.0 12.0 0.00 1.13 1.13 94 1014.9
20210924132003 60 337 7.0 11.0 0.00 1.13 1.13 94 1014.8
20210924131004 59 341 9.0 15.0 0.01 1.13 1.13 94 1014.9
20210924130004 60 336 7.0 12.0 0.06 1.13 1.13 94 1014.9
20210924125004 60 351 7.0 14.0 0.10 1.13 1.13 94 1014.9
20210924124004 60 352 7.0 13.0 0.12 1.13 1.13 94 1014.9
20210924123003 60 25 5.0 11.0 0.19 1.13 1.13 95 1014.9
20210924122003 60 53 4.0 9.0 0.26 1.13 1.13 94 1014.9
20210924121004 60 48 3.0 5.0 0.29 1.11 1.11 94 1014.9
20210924120005 60 47 4.0 9.0 0.26 1.07 1.07 94 1015.0
20210924115004 60 38 6.0 12.0 0.24 1.03 1.03 94 1015.2
20210924114004 61 15 5.0 10.0 0.22 1.00 1.00 94 1014.7
20210924113004 61 35 4.0 8.0 0.16 0.94 0.94 94 1015.1
20210924112004 62 9 5.0 10.0 0.09 0.87 0.87 94 1014.9
20210924111004 62 8 4.0 8.0 0.04 0.82 0.82 94 1014.8
20210924110004 62 15 3.0 10.0 0.03 0.81 0.81 94 1014.8
20210924105003 62 44 4.0 5.0 0.01 0.79 0.79 94 1014.7